Estación de El Refugio

Ultimos registro cada 15 minutos 82
Estación Fecha / Hora Temperatura Humedad Lluvia Velocidad Dirección Radiación Presion
82 El Refugio 06-05-2026 20:45 12,2 95 0 0 347 0 1041,7
81 El Refugio 06-05-2026 20:30 12,3 95 0 0 348 0 1041,5
80 El Refugio 06-05-2026 20:15 12,3 95 0 0 348 0 1041,2
79 El Refugio 06-05-2026 20:00 12,3 94 0 0 348 0 1041,2
78 El Refugio 06-05-2026 19:45 12,6 94 0,2 0 348 0 1041
77 El Refugio 06-05-2026 19:30 12,8 95 0,4 0 343 0 1041
76 El Refugio 06-05-2026 19:15 12,9 95 0 0 343 0 1040,7
75 El Refugio 06-05-2026 19:00 12,9 94 0 0 343 0 1040,5
74 El Refugio 06-05-2026 18:45 12,9 94 0 0 343 0 1040,4
73 El Refugio 06-05-2026 18:30 13,1 94 0 0 343 0 1040,1
72 El Refugio 06-05-2026 18:15 13,1 94 0 0 338 0 1039,9
71 El Refugio 06-05-2026 18:00 13,2 94 0 0 292 0 1039,8
70 El Refugio 06-05-2026 17:45 13,3 94 0 0 319 0 1039,6
69 El Refugio 06-05-2026 17:30 13,6 94 0 1,3 306 23 1039,1
68 El Refugio 06-05-2026 17:15 13,6 94 0 1,3 306 23 1039,1
67 El Refugio 06-05-2026 17:00 13,7 94 0,2 0,9 298 39 1039,1
66 El Refugio 06-05-2026 16:45 13,7 94 1 0 269 25 1038,9
65 El Refugio 06-05-2026 16:15 14,2 94 0,2 0 294 33 1038,8
64 El Refugio 06-05-2026 16:00 14,5 94 0 0 254 9 1038,8
63 El Refugio 06-05-2026 15:45 14,4 94 0 0 254 35 1038,7
62 El Refugio 06-05-2026 15:30 14,3 94 0,2 0 254 26 1038,8
61 El Refugio 06-05-2026 15:15 14,3 94 0 0 254 30 1038,8
60 El Refugio 06-05-2026 15:00 14,4 93 0 0 254 37 1038,7
59 El Refugio 06-05-2026 14:45 14,5 94 0 0 360 37 1038,9
58 El Refugio 06-05-2026 14:30 14,5 94 0 0 360 72 1038,8
57 El Refugio 06-05-2026 14:15 14,6 95 0 0 330 162 1038,8
56 El Refugio 06-05-2026 14:00 13,9 94 0,2 0 302 111 1038,8
55 El Refugio 06-05-2026 13:45 13,7 94 0 0 71 40 1038,9
54 El Refugio 06-05-2026 13:30 13,7 94 0 0 71 30 1038,7
53 El Refugio 06-05-2026 13:15 13,5 93 0,4 0 71 47 1038,6
52 El Refugio 06-05-2026 13:00 13,6 93 1,6 0 308 63 1038,4
51 El Refugio 06-05-2026 12:45 13,6 92 2,6 0 308 97 1038,3
50 El Refugio 06-05-2026 12:15 13,6 91 1,2 0 308 33 1038,1
49 El Refugio 06-05-2026 12:00 14,1 88 0 0 308 30 1037,8
48 El Refugio 06-05-2026 11:45 14,1 88 0 0 308 30 1037,8
47 El Refugio 06-05-2026 11:30 14,6 86 1 0 308 30 1037,4
46 El Refugio 06-05-2026 11:15 14,9 82 0,2 0 308 26 1037,7
45 El Refugio 06-05-2026 11:00 15,4 77 0 0 272 32 1037,2
44 El Refugio 06-05-2026 10:45 15,4 77 0 0 272 32 1037,2
43 El Refugio 06-05-2026 10:30 16,3 75 0 0 228 47 1036,7
42 El Refugio 06-05-2026 10:15 15,8 77 0 0 233 213 1036
41 El Refugio 06-05-2026 10:00 15,3 78 0 0 237 141 1036,5
40 El Refugio 06-05-2026 09:45 15,3 78 0 0 237 141 1036,5
39 El Refugio 06-05-2026 09:30 15,5 79 0 0 238 155 1036,8
38 El Refugio 06-05-2026 09:15 14,8 83 0 0 48 371 1037
37 El Refugio 06-05-2026 09:00 11,2 94 0 0 296 65 1037,2
36 El Refugio 06-05-2026 08:45 11,2 94 0 0 296 65 1037,2
35 El Refugio 06-05-2026 08:30 9,7 94 0 0 296 155 1037
34 El Refugio 06-05-2026 08:15 8,8 94 0 0 296 97 1037
33 El Refugio 06-05-2026 08:00 8,2 92 0 0 296 9 1036,8
32 El Refugio 06-05-2026 07:45 8,2 92 0 0 296 9 1036,8
31 El Refugio 06-05-2026 07:30 8,2 92 0 0 296 0 1037
30 El Refugio 06-05-2026 07:15 8,2 92 0 0 296 0 1036,5
29 El Refugio 06-05-2026 07:00 8,2 91 0 0 296 0 1036,2
28 El Refugio 06-05-2026 06:45 8,2 91 0 0 296 0 1036,2
27 El Refugio 06-05-2026 06:30 8,4 90 0 0 296 0 1035,9
26 El Refugio 06-05-2026 06:15 8,9 91 0 0 296 0 1035,7
25 El Refugio 06-05-2026 06:00 9 91 0 0 296 0 1035,5
24 El Refugio 06-05-2026 05:45 9 91 0 0 296 0 1035,5
23 El Refugio 06-05-2026 05:30 8,9 91 0 0 296 0 1035,3
22 El Refugio 06-05-2026 05:15 8,7 91 0 0 296 0 1035,3
21 El Refugio 06-05-2026 05:00 8,6 90 0 0 296 0 1034,6
20 El Refugio 06-05-2026 04:45 8,6 90 0 0 296 0 1034,6
19 El Refugio 06-05-2026 04:30 8,9 90 0 0 296 0 1034,4
18 El Refugio 06-05-2026 04:15 9,2 90 0 0 296 0 1034,6
17 El Refugio 06-05-2026 04:00 9,1 91 0 0 296 0 1034,8
16 El Refugio 06-05-2026 03:45 9,1 91 0 0 296 0 1034,8
15 El Refugio 06-05-2026 03:30 8,9 88 0 0 296 0 1034,7
14 El Refugio 06-05-2026 03:15 9,2 87 0 0 296 0 1034,5
13 El Refugio 06-05-2026 03:00 10,2 88 0 0 296 0 1034,5
12 El Refugio 06-05-2026 02:45 10,2 88 0 0 296 0 1034,5
11 El Refugio 06-05-2026 02:30 10,3 88 0 0 296 0 1034,6
10 El Refugio 06-05-2026 02:15 10,5 88 0 0 296 0 1034,8
9 El Refugio 06-05-2026 02:00 10,9 87 0 0 296 0 1034,9
8 El Refugio 06-05-2026 01:45 10,9 87 0 0 296 0 1034,9
7 El Refugio 06-05-2026 01:30 11,2 88 0 0 296 0 1034,9
6 El Refugio 06-05-2026 01:15 11,2 88 0 0 296 0 1035
5 El Refugio 06-05-2026 01:00 11,3 88 0 0 296 0 1035,4
4 El Refugio 06-05-2026 00:45 11,3 88 0 0 296 0 1035,4
3 El Refugio 06-05-2026 00:30 11,3 87 0 0 296 0 1035,3
2 El Refugio 06-05-2026 00:15 11,4 87 0 0 296 0 1035,5
1 El Refugio 06-05-2026 00:00 11,8 85 0 0 296 0 1035,6